Coatesville, PA

1:28 AM EDT on October 21, 2017 (GMT -0400)
Chester County Carlson

Weather History for KMQS - April, 2013

Change the Weather History Date:

Saturday, April 20, 2013

  Actual Average (KILG) Record (KILG)
Temperature  
Mean Temperature 48 °F -  
Max Temperature 55 °F 65 °F 90 °F (1985)
Min Temperature 42 °F 44 °F 27 °F (1926)
Degree Days  
Heating Degree Days 16    
Moisture  
Dew Point 34 °F    
Average Humidity 58    
Maximum Humidity 94    
Minimum Humidity 37    
Precipitation  
Precipitation 0.27 in - - ()
Sea Level Pressure  
Sea Level Pressure 30.04 in    
Wind  
Wind Speed 12 mph (NW)    
Max Wind Speed 24 mph    
Max Gust Speed 30 mph    
Visibility 10 miles    
Events Rain    
Averages and records for this station are not official NWS values.
T = Trace of Precipitation, MM = Missing Value Source: NWS Daily Summary

Daily Weather History Graph

Daily Weather History Graph

Search for Another Location

Airport or City:

Trip Planner

Search our weather history database for the weather conditions in past years. The results will help you decide how hot, cold, wet, or windy it might be!

Date:

Astronomy

Apr. 20, 2013 Rise Set
Actual Time 6:18 AM EDT 7:47 PM EDT
Civil Twilight 5:49 AM EDT 8:15 PM EDT
Nautical Twilight 5:15 AM EDT 8:50 PM EDT
Astronomical Twilight 4:39 AM EDT 9:26 PM EDT
Moon 2:29 PM EDT (4/20) 3:06 AM EDT (4/20)
Length of Visible Light 14h 26m
Length of Day
13h 29m
Waxing Gibbous, 71% of the Moon is Illuminated
Apr 20
Waxing Gibbous
Apr 25
Full
May 2
Last Quarter
May 9
New
May 18
First Quarter

Hourly Weather History & Observations

Time (EDT) Temp. Windchill Dew Point Humidity Pressure Visibility Wind Dir Wind Speed Gust Speed Precip Events Conditions
12:15 AM 53.6 °F - 51.8 °F 94% 29.80 in 5.0 mi NW 10.4 mph - 0.02 in Rain Rain
12:35 AM 51.8 °F - 48.2 °F 88% 29.78 in 5.0 mi North 10.4 mph 16.1 mph 0.05 in Rain Rain
12:55 AM 48.2 °F - 46.4 °F 93% 29.77 in 5.0 mi NNW 9.2 mph 17.3 mph 0.11 in Rain Heavy Rain
1:15 AM 48.2 °F - 44.6 °F 87% 29.79 in 3.0 mi NNW 11.5 mph 18.4 mph 0.05 in Rain Rain
1:35 AM 48.2 °F - 44.6 °F 87% 29.81 in 7.0 mi NW 12.7 mph - 0.09 in Rain Light Rain
1:55 AM 48.2 °F - 44.6 °F 87% 29.80 in 9.0 mi NNW 10.4 mph - 0.10 in   Overcast
2:15 AM 48.2 °F - 42.8 °F 82% 29.80 in 10.0 mi NNW 10.4 mph - N/A   Overcast
2:35 AM 46.4 °F 41.9 °F 42.8 °F 87% 29.80 in 4.0 mi NNW 9.2 mph - 0.05 in Rain Rain
2:55 AM 46.4 °F 41.5 °F 42.8 °F 87% 29.82 in 10.0 mi NW 10.4 mph 16.1 mph 0.06 in   Overcast
3:15 AM 46.4 °F 42.4 °F 42.8 °F 87% 29.84 in 10.0 mi NW 8.1 mph - N/A   Mostly Cloudy
3:35 AM 46.4 °F 43.5 °F 42.8 °F 87% 29.83 in 10.0 mi NW 5.8 mph - N/A Rain Light Rain
3:55 AM 46.4 °F 42.9 °F 42.8 °F 87% 29.84 in 10.0 mi NW 6.9 mph - N/A   Overcast
4:15 AM 46.4 °F 41.9 °F 41.0 °F 81% 29.85 in 10.0 mi NW 9.2 mph - N/A   Overcast
4:35 AM 46.4 °F 42.4 °F 41.0 °F 81% 29.86 in 10.0 mi WNW 8.1 mph - N/A   Overcast
4:55 AM 46.4 °F 41.9 °F 41.0 °F 81% 29.87 in 10.0 mi WNW 9.2 mph - N/A   Overcast
5:15 AM 46.4 °F 41.1 °F 42.8 °F 87% 29.89 in 10.0 mi WNW 11.5 mph - N/A   Overcast
5:35 AM 46.4 °F 41.1 °F 39.2 °F 76% 29.89 in 10.0 mi WNW 11.5 mph - N/A   Overcast
6:15 AM 46.4 °F 41.1 °F 35.6 °F 66% 29.91 in 10.0 mi WNW 11.5 mph - N/A   Partly Cloudy
6:35 AM 44.6 °F 39.7 °F 37.4 °F 76% 29.92 in 10.0 mi WNW 9.2 mph - N/A   Clear
6:55 AM 44.6 °F 38.4 °F 35.6 °F 71% 29.93 in 10.0 mi WNW 12.7 mph - N/A   Clear
7:15 AM 44.6 °F 39.2 °F 35.6 °F 71% 29.94 in 10.0 mi WNW 10.4 mph - N/A   Clear
7:35 AM 46.4 °F 41.1 °F 37.4 °F 71% 29.95 in 10.0 mi WNW 11.5 mph - N/A   Clear
7:55 AM 46.4 °F 39.2 °F 35.6 °F 66% 29.96 in 10.0 mi WNW 18.4 mph 24.2 mph N/A   Clear
8:15 AM 46.4 °F 40.1 °F 35.6 °F 66% 29.97 in 10.0 mi WNW 15.0 mph 20.7 mph N/A   Clear
8:35 AM 46.4 °F 40.4 °F 33.8 °F 62% 29.98 in 10.0 mi WNW 13.8 mph 20.7 mph N/A   Clear
8:55 AM 46.4 °F 39.5 °F 33.8 °F 62% 29.99 in 10.0 mi West 17.3 mph 21.9 mph N/A   Clear
9:15 AM 44.6 °F 38.8 °F 33.8 °F 66% 30.00 in 10.0 mi WNW 11.5 mph - N/A   Clear
9:35 AM 44.6 °F 37.4 °F 32.0 °F 61% 30.01 in 10.0 mi WNW 16.1 mph 21.9 mph N/A   Clear
9:55 AM 46.4 °F 40.4 °F 33.8 °F 62% 30.02 in 10.0 mi WNW 13.8 mph - N/A   Clear
10:15 AM 46.4 °F 40.4 °F 32.0 °F 57% 30.04 in 10.0 mi NW 13.8 mph - N/A   Clear
10:35 AM 48.2 °F - 32.0 °F 54% 30.05 in 10.0 mi WNW 18.4 mph - N/A   Partly Cloudy
11:15 AM 50.0 °F - 32.0 °F 50% 30.07 in 10.0 mi West 11.5 mph 20.7 mph N/A   Scattered Clouds
11:35 AM 51.8 °F - 32.0 °F 47% 30.06 in 10.0 mi WNW 17.3 mph 24.2 mph N/A   Mostly Cloudy
11:55 AM 50.0 °F - 32.0 °F 50% 30.06 in 10.0 mi NW 19.6 mph 25.3 mph N/A   Mostly Cloudy
12:15 PM 51.8 °F - 32.0 °F 47% 30.05 in 10.0 mi WNW 16.1 mph 23.0 mph N/A   Mostly Cloudy
12:35 PM 51.8 °F - 30.2 °F 44% 30.06 in 10.0 mi WNW 16.1 mph 27.6 mph N/A   Scattered Clouds
12:55 PM 53.6 °F - 32.0 °F 44% 30.05 in 10.0 mi WNW 13.8 mph 24.2 mph N/A   Scattered Clouds
1:15 PM 53.6 °F - 32.0 °F 44% 30.05 in 10.0 mi WNW 24.2 mph 28.8 mph N/A   Mostly Cloudy
1:35 PM 53.6 °F - 32.0 °F 44% 30.05 in 10.0 mi WNW 19.6 mph 29.9 mph N/A   Partly Cloudy
1:55 PM 55.4 °F - 32.0 °F 41% 30.05 in 10.0 mi WNW 15.0 mph 25.3 mph N/A   Partly Cloudy
2:15 PM 53.6 °F - 32.0 °F 44% 30.05 in 10.0 mi WNW 19.6 mph 24.2 mph N/A   Partly Cloudy
2:35 PM 53.6 °F - 32.0 °F 44% 30.05 in 10.0 mi WNW 15.0 mph - N/A   Scattered Clouds
2:55 PM 55.4 °F - 30.2 °F 38% 30.06 in 10.0 mi WNW 21.9 mph 26.5 mph N/A   Scattered Clouds
3:15 PM 55.4 °F - 30.2 °F 38% 30.07 in 10.0 mi NW 16.1 mph 29.9 mph N/A   Clear
3:35 PM 53.6 °F - 30.2 °F 41% 30.07 in 10.0 mi NW 21.9 mph 26.5 mph N/A   Clear
3:55 PM 55.4 °F - 30.2 °F 38% 30.08 in 10.0 mi WNW 17.3 mph 24.2 mph N/A   Clear
4:15 PM 55.4 °F - 30.2 °F 38% 30.08 in 10.0 mi West 16.1 mph 21.9 mph N/A   Partly Cloudy
4:55 PM 55.4 °F - 30.2 °F 38% 30.10 in 10.0 mi WNW 10.4 mph - N/A   Partly Cloudy
5:15 PM 53.6 °F - 28.4 °F 38% 30.11 in 10.0 mi NW 16.1 mph 20.7 mph N/A   Scattered Clouds
5:35 PM 51.8 °F - 28.4 °F 41% 30.12 in 10.0 mi NW 13.8 mph 20.7 mph N/A   Mostly Cloudy
5:55 PM 53.6 °F - 28.4 °F 38% 30.13 in 10.0 mi WNW 16.1 mph 26.5 mph N/A   Scattered Clouds
6:15 PM 53.6 °F - 28.4 °F 38% 30.14 in 10.0 mi WNW 15.0 mph 23.0 mph N/A   Partly Cloudy
6:35 PM 53.6 °F - 28.4 °F 38% 30.15 in 10.0 mi NW 13.8 mph 23.0 mph N/A   Partly Cloudy
6:55 PM 51.8 °F - 26.6 °F 38% 30.17 in 10.0 mi WNW 18.4 mph 21.9 mph N/A   Partly Cloudy
7:15 PM 50.0 °F - 24.8 °F 37% 30.18 in 10.0 mi NW 15.0 mph - N/A   Clear
7:35 PM 50.0 °F - 26.6 °F 40% 30.19 in 10.0 mi NW 12.7 mph - N/A   Clear
7:55 PM 48.2 °F - 26.6 °F 43% 30.21 in 10.0 mi NW 11.5 mph - N/A   Clear
8:15 PM 48.2 °F - 26.6 °F 43% 30.22 in 10.0 mi NW 11.5 mph - N/A   Clear
8:35 PM 46.4 °F 42.4 °F 26.6 °F 46% 30.23 in 10.0 mi NNW 8.1 mph - N/A   Clear
8:55 PM 46.4 °F 41.5 °F 24.8 °F 43% 30.25 in 10.0 mi NW 10.4 mph - N/A   Clear
9:15 PM 46.4 °F 41.9 °F 24.8 °F 43% 30.28 in 10.0 mi NW 9.2 mph - N/A   Clear
9:35 PM 46.4 °F 42.9 °F 24.8 °F 43% 30.29 in 10.0 mi NW 6.9 mph - N/A   Clear
9:55 PM 46.4 °F 41.9 °F 26.6 °F 46% 30.30 in 10.0 mi NW 9.2 mph - N/A   Clear
10:15 PM 44.6 °F 39.7 °F 26.6 °F 49% 30.31 in 10.0 mi NW 9.2 mph - N/A   Clear
10:35 PM 44.6 °F 40.2 °F 26.6 °F 49% 30.32 in 10.0 mi NW 8.1 mph - N/A   Clear
10:55 PM 44.6 °F 40.2 °F 26.6 °F 49% 30.33 in 10.0 mi NNW 8.1 mph - N/A   Clear
11:15 PM 44.6 °F 40.2 °F 26.6 °F 49% 30.33 in 10.0 mi NNW 8.1 mph - N/A   Clear
11:35 PM 42.8 °F 37.5 °F 26.6 °F 53% 30.34 in 10.0 mi NNW 9.2 mph - N/A   Clear
11:55 PM 42.8 °F 38.0 °F 26.6 °F 53% 30.34 in 10.0 mi NNW 8.1 mph - N/A   Clear